Погода в Каце

Погода в Каце : погода сейчас, прогноз погоды и архив. Всё, что Вы хотите узнать о погоде в Каце!

Поиск расширенной информации на нашем сайте:

Полезная информация: Плитка из резины резиновая плитка.

Другие новости

Новости СМИ2

Главная страница сайта

Новости сайта

02.10.2013

Напоминаем, что на нашем новом сайте вы можете получить высокодетализированные прогнозы погоды по пунктам России, СНГ и мира (включающие важные для авиации метеовеличины, такие как направление и скорость ветра, видимость, явления погоды, количество и форма облачности, нижняя и верхняя граница облачности), а также ознакомиться с разнообразными материалами по авиационной метеорологии и подборкой полезных ссылок на эту тему.

Сайт Метеоцентр.Азия посвящён разработке технологий оптимизации авиаметеорологического обслуживания, включая проектирование и перспективное создание нескольких автоматизированных авиаметеорологических систем:
- система выпуска высокодетальных прогностических карт явлений погоды для нижнего воздушного пространства по России и ближнему зарубежью;
- система верификации прогнозов TAF (выпускаемых синоптиками официальных АМСГ РФ и ближнего зарубежья) и AUTOTAF (выпускаемых сайтом Метеоцентр.Азия) - выявление ошибок, онлайн-сопоставление с фактической погодой METAR, автоматическое внесение коррективов в прогнозы при резком отклонении фактической погоды от прогноза, подсчёт оправдываемости прогнозов по элементам и в целом;
- система обработки, анализа и отображения авиаметеорологической информации для применения провайдерами метеорологической информации.

Рекомендуем: Видеоинтерфейс, интерфейс hdmi мультимедийный: схема распиновки.

Погода в Каце - сегодня

Время (UTC), дата Ветер
(°,м/с) 
Видим.   Явления Облачность Т
(°С)
Тd
(°С)
f(%) Тe
(°С)
Pmin
(гПа)
dP
(гПа)
Po
(мм)
O2
(г/м3)
Тmin Tmax R s Состояние
почвы
21 17.02.17 270 (З) 10 км  слаб. снег  10/10 2000 м 
[Ns]
-13.7 -15.5 86 -16  1016.8  5.6  716  305           
00 18.02.17 270 (З) 10 км    10/10 2000 м 
[Ns]
-14.3 -16.3 85 -16  1021.6  4.3  720  307  -14.7    70  равномерный
сухой снег
100% 
03 18.02.17 230 (ЮЗ) 20000 м  {снег}  8/8 2000 м средняя 
[As trans]
-14.7 -16.8 84 -18  1025.6  3.6  722  309  -15.2         
06 18.02.17 240 (ЮЗ) 20000 м  {снег}  6/6 2000 м средняя 
[As trans]
-12.1 -15.4 76 -17  1026.3  1.3  723  306           
09 18.02.17 240 (ЮЗ) 20000 м  слаб. ливневой снег  8/8 600 м кучево-дожд. 
[Cb cap]
-10.7 -14.1 76 -16  1026.1  0.1  723  305           
12 18.02.17 210 (ЮЗ) 20000 м  {ливн. осадки}  4/0 верхняя 
[Ci fib]
-12.8 -15.1 83 -16  1027.3  0.6  724  307    -10.4  0.4     
15 18.02.17 240 (ЮЗ) 20000 м    ясно 
-14.3 -17.2 79 -16  1027.6  724  309           
18 18.02.17 230 (ЮЗ) 20000 м    ясно 
-15.4 -17.7 83 -15  1027.5  -0.4  724  310           
21 18.02.17 240 (ЮЗ) 20000 м    ясно 
-14.7 -17.3 81 -15  1026.5  -0.8  723  309           
00 19.02.17 220 (ЮЗ) 20000 м    ясно 
-15.9 -18.2 82 -18  1026.6  -0.2  723  311  -16      70  равномерный
сухой снег
100% 
03 19.02.17 240 (ЮЗ) 20000 м    ясно 
-14.9 -18.7 73 -17  1025.7  -0.6  722  309  -21.1         
06 19.02.17 160 (Ю) 20000 м    ясно 
-7.9 -14.6 59 -9  1023.1  -0.8  722  301           
09 19.02.17 210 (ЮЗ) 20000 м    4/0 верхняя 
[Ci fib]
-7 -15.5 51 -10  1020.3  -2.5  720  299           
12 19.02.17 тихо ()   20000 м    ясно 
-14.9 -17.6 80 -15  1020.9  -1.3  719  308    -6.3       
15 19.02.17 тихо ()   20000 м    ясно 
-16.2 -18 86 -16  1020  -1.1  718  309           
18 19.02.17 тихо ()   20000 м    4/0 верхняя 
[Ci fib]
-15.9 -17.9 85 -16  1019.3  -0.6  718  308           
21 19.02.17 230 (ЮЗ) 20000 м    8/8 2000 м средняя 
[As trans]
-9.3 -13 74 -13  1019.9  2.1  719  301           
00 20.02.17 230 (ЮЗ) 6-10{14}  20000 м  слаб. снег  10/10 2000 м 
[Ns]
-11.5 -14.6 78 -17  1023.3  2.6  721  305  -16.9    0.2  70  равномерный
сухой снег
100% 
03 20.02.17 230 (ЮЗ) 4{12}  20000 м  слаб. снег  10/10 2000 м 
[As trans]
-12.3 -15 80 -17  1025.9  2.2  723  306           
06 20.02.17 230 (ЮЗ) 6-10{14}  20000 м  позёмок{снег}  5/0 верхняя 
[Ci fib]
-10.8 -15.7 67 -16  1025.7  0.2  723  305           
09 20.02.17 210 (ЮЗ) 4{11}  20000 м  позёмок  6/0 верхняя 
[Ci fib]
-9.3 -15.2 62 -13  1024.2  -1.1  722  303           
12 20.02.17 190 (Ю) 4{11}  20000 м    9/9 2000 м средняя 
[As trans]
-8.8 -14.8 62 -13  1022.5  -1.5  721  301    -8.8  0.3     
15 20.02.17 190 (Ю) 20000 м    9/9 2000 м средняя 
[As trans]
-8.5 -15 59 -12  1020.6  -1.7  720  301           
18 20.02.17 210 (ЮЗ) 20000 м    10/10 2000 м 
[As trans]
-7.3 -12.5 66 -12  1019.5  -0.7  719  299           
21 20.02.17 220 (ЮЗ) 5{11}  20000 м    ясно 
-8.3 -13.5 66 -13  1020.6  0.8  720  300           
Время (UTC), дата Ветер
(°,м/с) 
Видим.   Явления Облачность Т
(°С)
Тd
(°С)
f(%) Тe
(°С)
Pmin
(гПа)
dP
(гПа)
Po
(мм)
O2
(г/м3)
Тmin Tmax R s Состояние
почвы

Для получения пояснительной информации подведите курсор к названию столбца.

ПОГОДА в Каце - архив

Всё, что Вы хотите узнать о погоде в Каце - удобно и подробно!

Выберите нужную дату (начиная с 1 января 2015* года) и нажмите кнопку "Найти".
Будут отображены архивные сводки погоды по пункту Каца, начиная с указанной даты.


Отображать данные в формате CSV (для использования в таблицах Excel)


Внимание! Наш архив погоды предназначен исключительно для личного некоммерческого использования в познавательных целях. Если Вам необходимы официальные справки о состоянии погоды (для производственных, юридических, коммерческих и т.п. целей), обращайтесь в органы Росгидромета.

*Примечание: данная дата относится к архиву по метеостанциям СССР (Россия, СНГ, Балтия).
Архив по метеостанциям Зарубежной Европы и Азии (кроме Китая) хранится 10 дней, по другим регионам земного шара (Китай, Африка, Америка, Австралия, Океания) - 1 день.

Каца - район местоположения метеостанции


Название, широта, долгота, высота метеостанции:
Каца 56.1°ш. 92.2°д. 479 м над ур. моря [Российская Федерация]

Дополнительная информация

В oтличие oт бoльшинства пoгoдных сайтoв мы публикуем пoдрoбную метеoинфoрмацию в детальнoм прoфессиoнальнoм фoрмате.

Характеристики температуры и влажнoсти вoздуха измеряются на высoте 2 м в тени вдали oт зданий и деревьев.
Скoрoсть ветра измеряется на высoте 10 м (на урoвне рoста челoвека скoрoсть ветра ниже в 1.5-2 раза). Если метеoстанция нахoдится в гoрoде или в лесу, тo скoрoсть ветра занижена на 2-4 м/с пo сравнению с oткрытым местoм. Скoрoсть ветра над акватoриями крупных рек и oзёр, а также на вершинах хoлмoв на 2-5 м/с выше, чем в oбычных услoвиях.
Атмoсфернoе давление в разных тoчках местнoсти мoжет значительнo oтличаться oт давления на метеoстанции, в зависимoсти oт услoвий рельефа (при пoдъёме на 10 м давление пoнижается примернo на 1 мм рт.ст.).